TimeCDT,TemperatureF,Dew PointF,Humidity,Sea Level PressureIn,VisibilityMPH,Wind Direction,Wind SpeedMPH,Gust SpeedMPH,PrecipitationIn,Events,Conditions,WindDirDegrees,DateUTC
12:53 AM,82.9,75.9,79,29.90,10.0,North,4.6,-,N/A,,Mostly Cloudy,10,2013-06-14 05:53:00
1:53 AM,82.0,72.0,71,29.92,10.0,NE,9.2,20.7,N/A,,Scattered Clouds,40,2013-06-14 06:53:00
2:53 AM,79.0,73.0,82,29.91,10.0,NE,4.6,-,N/A,,Clear,40,2013-06-14 07:53:00
3:53 AM,78.1,70.0,76,29.91,10.0,ENE,6.9,-,N/A,,Clear,70,2013-06-14 08:53:00
4:53 AM,75.9,70.0,82,29.92,10.0,Calm,Calm,-,N/A,,Clear,0,2013-06-14 09:53:00
5:53 AM,75.0,68.0,79,29.92,10.0,NNE,3.5,-,N/A,,Clear,30,2013-06-14 10:53:00
6:53 AM,75.9,69.1,79,29.93,10.0,NNE,4.6,-,N/A,,Clear,30,2013-06-14 11:53:00
7:53 AM,78.1,66.9,68,29.96,10.0,NE,5.8,-,N/A,,Scattered Clouds,50,2013-06-14 12:53:00
8:53 AM,79.0,64.9,62,29.98,10.0,East,8.1,-,N/A,,Clear,80,2013-06-14 13:53:00
9:53 AM,81.0,66.0,60,29.97,10.0,ENE,9.2,-,N/A,,Clear,70,2013-06-14 14:53:00
10:53 AM,82.0,64.9,56,29.97,10.0,Variable,5.8,-,N/A,,Clear,0,2013-06-14 15:53:00
11:53 AM,84.0,64.9,53,29.97,10.0,NE,8.1,-,N/A,,Clear,40,2013-06-14 16:53:00
12:53 PM,84.9,64.9,51,29.96,10.0,NNE,5.8,-,N/A,,Partly Cloudy,20,2013-06-14 17:53:00
1:53 PM,84.9,64.0,49,29.94,10.0,Variable,6.9,-,N/A,,Clear,0,2013-06-14 18:53:00
2:53 PM,87.1,62.1,43,29.93,10.0,Variable,5.8,-,N/A,,Clear,0,2013-06-14 19:53:00
3:53 PM,87.1,62.1,43,29.94,10.0,Variable,5.8,-,N/A,,Clear,0,2013-06-14 20:53:00
4:53 PM,87.1,60.1,40,29.93,10.0,NNE,9.2,-,N/A,,Clear,30,2013-06-14 21:53:00
5:53 PM,86.0,60.1,41,29.92,10.0,NE,5.8,-,N/A,,Clear,50,2013-06-14 22:53:00
6:53 PM,84.9,60.1,43,29.92,10.0,Variable,4.6,-,N/A,,Clear,0,2013-06-14 23:53:00
7:53 PM,82.0,61.0,49,29.93,10.0,NNE,3.5,-,N/A,,Clear,30,2013-06-15 00:53:00
8:53 PM,80.1,62.1,54,29.94,10.0,North,3.5,-,N/A,,Clear,360,2013-06-15 01:53:00
9:53 PM,75.9,63.0,64,29.97,10.0,Calm,Calm,-,N/A,,Clear,0,2013-06-15 02:53:00
10:53 PM,73.9,64.0,71,29.97,10.0,Calm,Calm,-,N/A,,Clear,0,2013-06-15 03:53:00
11:53 PM,72.0,63.0,73,29.96,10.0,NE,4.6,-,N/A,,Clear,40,2013-06-15 04:53:00